User: anonymous   Login
Location: Unspecified
(0.0000°N, 0.0000°E)
Time: 01:11:06
(UTC+00:00)
Language:

STARLINK-5013 - Orbit

View from above orbital plane
View from above orbital plane
View from above satellite
View from above satellite

Ground track
Ground track

The orbit is defined by the following mean orbital elements,

1 55492U          26145.38219490 +.00000000 +00000-0 -10118-5 0 00009
2 55492  43.0036 266.6641 0001205 273.9940  86.0774 15.27576342    00
Epoch (UTC): 25 May 2026 09:10:21
Eccentricity: 0.0001205
inclination: 43.0036°
perigee height: 482 km
apogee height: 484 km
right ascension of ascending node: 266.6641°
argument of perigee: 273.9940°
revolutions per day: 15.27576342
mean anomaly at epoch: 86.0774°

The dashed part of the orbit path shows where the satellite is in the earth's shadow,  

DLR